Showing default

ORBCOMM FM 18, 25414

Orbit data source: Space-Track

ORBCOMM FM 18, 25414 is a payload satellite owned by Orbcomm (US) in LEO that was launched on Sun, 02 Aug 1998 UTC via a PEGASUS XL/HAPS launch vehicle from the Pegasus Launch, Eastern Range Air Space (ERAS). Payload-class satellites include a variety of spacecraft equipped with specific instruments for various scientific and technological missions. These include communications satellites like Starlink; space stations such as the ISS; scientific satellites like the Hubble; Earth observation satellites from companies like Planet Labs, Umbra, and HawkEye 360; GPS; miniature CubeSats for education and research; and military/defense satellites.

Loading next visibility...
Identifier
25414, 1998-046B
Orbit
LEO
Country
Flag of USUS / ORB
Related business
Manufacturer
OSC-Germantown
Mission
Non-operational Commercial Communications
Bus & Motor
MICROSTAR, Unknown motor
Mass
42 kg wet, 42 kg dry
Launch date (UTC)
1998-08-02 (27 years ago)
Launch vehicle
PEGASUS XL/HAPS
Launch site
Pegasus Launch, Eastern Range Air Space (ERAS)
Object type
Payload
Rocket body
Debris
Shape & HBR
Cyl + 2 Pan, 2.1 m
Radar Cross Section
1.484 m², Medium (>0.1 m² and < 1m²)

Expand to show TLE details & history
Last TLE update: 8 hours ago

TLE from 8 hours ago
0 ORBCOMM FM 18
1 25414U 98046B   25243.55683522  .00002566  00000-0  87383-3 0  9996
2 25414  44.9913 177.2404 0006433 310.0973  49.9311 14.38720915415100
Epoch: 2025-08-31T13:21Z
TLE epoch observation values (Epoch: 2025-08-31T13:21:50.563Z)
Latitude
Longitude
-3.19535°
Altitude
759.771 km
Speed
7.478 km/s
True Right ascension
11h 48m 57s
True Declination
0° 00' 00"
Sunlit
Object was in daylight at epoch
Visualization orbit readout
Latitude
Unknown
Longitude
Unknown
Altitude
Unknown
Speed
Unknown
Apparent Right ascension
Unknown
Apparent Declination
Unknown
Sunlit
N/A
Visualization observer readout
Local Sidereal Time
12:34:24
Azimuth
Unknown
Elevation
Unknown
Doppler factor
Unknown
Orbital elements
Apogee altitude
768.87 km
Perigee altitude
759.681 km
Semi-major axis
7,142.413 km
Eccentricity
0.00064
Inclination
44.9913°
RAAN
177.2404°
Arg. of periapsis
310.0973°
True anomaly
49.98754°
Mean anomaly
49.9311°
Eccentric anomaly
49.95932°
Mean motion
3.59564 °/min
Orbital period
100.12 mins
BSTAR
0.00087383
Loading maneuver chart data...
Computing Atmospheric mass density...

Documentation

Showing up to 5 results
|